Starlink 5998

operational
NORAD ID: 56468 Int'l Des: 2023-064 Owner: SPXS Country: US Constellation: starlink
LEOCIRCULAR

About Starlink 5998

Description loading...

Live Position

Loading 3D Globe...

Upcoming Passes

Altitude History

Altitude vs Time

uPlot chart will show altitude changes over time

Two-Line Element Set

1 56468U 23064W 25257.33028312 .00000650 00000-0 62227-4 0 9991
2 56468 69.9986 228.9346 0002886 268.9915 91.0913 14.98329625128830
Epoch: Sep 14, 2025 • Age: 24 hours

Current Status

Altitude 595.1 km
Velocity 7.56 km/s
Sub-Earth Point -68.16°S, 3.74°E
Launch Date May 10, 2023
Age 2.3 years
Type internet

Technical Details

Classification Payload
Mass 305.00 kg
Dry Mass 290.00 kg
Total Mass 305.00 kg
Length 0.20 m
Diameter 2.80 m
Span 9.00 m
Shape Box + pan
Manufacturer SPXS
Bus Type Starlink
Phase Status In Orbit
Owner/State SPXS/US

Large Constellations

Loading constellations...